{"data":{"norad_id":42945,"intl_designator":"2017-058A","name":"YAOGAN-30 02A","alt_names":[],"object_type":"PAYLOAD","status":"ACTIVE","operator":null,"country":"PRC","launch_date":"2017-09-29","launch_site_code":"XICLF","launch_vehicle":null,"mission":null,"orbit_class":"UNKNOWN","rcs_meters":null,"size_class":null,"mass_kg":null,"dimensions":null,"purposes":[],"wikipedia_slug":null,"has_3d_model":false,"image_url":null,"decayed_at":null,"tle_current":{"epoch":"2026-09-20T04:06:04.374144Z","epoch_age_seconds":76798,"freshness":"FRESH","line1":"1 42945U 17058A   26263.17088396  .00001927  00000+0  14036-3 0  9991","line2":"2 42945  34.9967 169.7698 0003072 262.6924  97.3435 15.03554972490198","mean_motion":15.03554972,"eccentricity":0.0003072,"inclination_deg":34.9967,"raan_deg":169.7698,"arg_perigee_deg":262.6924,"mean_anomaly_deg":97.3435,"bstar":0.00014036,"rev_number":49019,"period_min":95.773019731001,"perigee_km":553.81475551266,"apogee_km":558.07505543538,"semimajor_km":6934.081905474,"source":"CELESTRAK","updated_at":"2026-09-20T09:00:14.251900Z"}}}